sat.trackr.live / text

‹ back to catalog

STARLINK-11407 [DTC]

NORAD 61939 · 2024-209A

PAYLOAD ACTIVE UNKNOWN

§ Identity

Operator
Country
US
Launch date
2024-11-14
Launch site
AFWTR
Launch vehicle
Mass (kg)
RCS (m²)

Purposes: comms

External: N2YO · Heavens-Above · Gunter

§ Orbital elements

Epoch: 2026-05-24T23:34:56.974368Z

Period
91.73 min
Inclination
53.1580°
Eccentricity
0.0000812
Mean motion
15.69770202 rev/d
Perigee alt
359.0 km
Apogee alt
360.1 km
Semi-major
6,737.7 km
B*
1.7188e-3
RAAN
354.9432°
Arg perigee
63.7787°
Mean anomaly
296.3314°
Rev number
8,872

§ Raw data

STARLINK-11407 [DTC]1 61939U 24209A   26144.98260387  .00213625  00000+0  17188-2 0  99902 61939  53.1580 354.9432 0000812  63.7787 296.3314 15.69770202 88723

JSON: /api/v1/satellites/61939 · /tle

For live sub-satellite position, see the globe view (requires WebGL).

§ Visibility from observer

Set your observer location to see the next 7 days of passes ≥ 10°. The values pass through the URL so the page stays shareable.

No JS? Fill the form by hand. The geolocation button needs JavaScript.